Location: Asheville, NC
(35.6000°N, 82.5500°W)
Time: 21:10:12
(UTC-05:00)

STRAND 1 - Pass Details

Date: 07 January 2018
Orbit: 768 x 782 km, 98.5° (Epoch: 20 January)

Event Time Altitude Azimuth Distance (km) Brightness Sun altitude
Rises 06:09:58 0° 129° (SE) 3,227 ? -17.9°
Reaches altitude 10° 06:12:46 10° 114° (ESE) 2,303 ? -17.4°
Maximum altitude 06:16:29 21° 67° (ENE) 1,678 ? -16.7°
Drops below altitude 10° 06:20:12 10° 19° (NNE) 2,311 ? -15.9°
Sets 06:23:00 0° 4° (N) 3,242 ? -15.4°
